When you browse on this site, cookies collect data to enhance your experience and personalize the content and advertising you see.
Visit our Privacy Policy to learn more. By continuing to use the site, you agree to this use of cookies and data.
  • In Denmark
  • List of Countries
  • For 7 days
  • Water Temperature
  • Satellite Maps
  • Weather Map
  • Weather Widgets
  • user-avatar
    Login

    Hourly Weather Eisenstadt

    Today, 26 June, Wednesday

    Time Temperature Precipitation Wind Pressure Humidity
    00:00 +21°C° 0 mm 2 mps 729 mmHg 87%
    01:00 +21°C° 0 mm 2 mps 729 mmHg 89%
    02:00 +20°C° 0 mm 2 mps 729 mmHg 90%
    03:00 +20°C° 0 mm 2 mps 729 mmHg 90%
    04:00 +20°C° 0 mm 2 mps 728 mmHg 91%
    05:00 +23°C° 0 mm 2 mps 729 mmHg 85%
    06:00 +24°C° 0 mm 2 mps 729 mmHg 79%
    07:00 +26°C° 0 mm 2 mps 730 mmHg 73%
    08:00 +28°C° 0 mm 3 mps 730 mmHg 67%
    09:00 +29°C° 0 mm 3 mps 730 mmHg 60%
    10:00 +30°C° 0 mm 3 mps 730 mmHg 54%
    11:00 +32°C° 0 mm 4 mps 730 mmHg 52%
    12:00 +33°C° 0 mm 4 mps 730 mmHg 50%
    13:00 +34°C° 0 mm 3 mps 730 mmHg 47%
    14:00 +34°C° 0 mm 3 mps 729 mmHg 49%
    15:00 +33°C° 0 mm 3 mps 729 mmHg 50%
    16:00 +33°C° 0 mm 4 mps 728 mmHg 52%
    17:00 +31°C° 0 mm 3 mps 728 mmHg 60%
    18:00 +29°C° 0 mm 3 mps 728 mmHg 68%
    19:00 +27°C° 0 mm 2 mps 728 mmHg 75%
    20:00 +26°C° 0 mm 2 mps 728 mmHg 78%
    21:00 +25°C° 0 mm 2 mps 727 mmHg 80%
    22:00 +24°C° 0 mm 2 mps 727 mmHg 82%
    23:00 +24°C° 0 mm 2 mps 727 mmHg 79%

    Tomorrow, 27 June, Thursday

    Time Temperature Precipitation Wind Pressure Humidity
    00:00 +24°C° 0 mm 2 mps 727 mmHg 77%
    01:00 +24°C° 0 mm 2 mps 727 mmHg 74%
    02:00 +24°C° 0 mm 1 mps 727 mmHg 73%
    03:00 +24°C° 0 mm 1 mps 727 mmHg 72%
    04:00 +24°C° 0 mm 1 mps 726 mmHg 70%
    05:00 +25°C° 0 mm 1 mps 726 mmHg 68%
    06:00 +27°C° 0 mm 1 mps 726 mmHg 66%
    07:00 +29°C° 0 mm 1 mps 726 mmHg 64%
    08:00 +30°C° 0 mm 2 mps 726 mmHg 61%
    09:00 +31°C° 0 mm 3 mps 727 mmHg 59%
    10:00 +33°C° 0 mm 4 mps 727 mmHg 56%
    11:00 +33°C° 0.8 mm 4 mps 726 mmHg 58%
    12:00 +33°C° 0.8 mm 4 mps 726 mmHg 60%
    13:00 +33°C° 0.8 mm 4 mps 726 mmHg 62%
    14:00 +32°C° 0.6 mm 4 mps 726 mmHg 62%
    15:00 +30°C° 0.6 mm 4 mps 725 mmHg 62%
    16:00 +30°C° 0.6 mm 5 mps 725 mmHg 62%
    17:00 +28°C° 0.2 mm 5 mps 725 mmHg 65%
    18:00 +26°C° 0.2 mm 5 mps 725 mmHg 67%
    19:00 +25°C° 0.2 mm 4 mps 725 mmHg 69%
    20:00 +23°C° 0 mm 5 mps 725 mmHg 64%
    21:00 +21°C° 0 mm 5 mps 726 mmHg 59%
    22:00 +20°C° 0 mm 5 mps 726 mmHg 54%
    23:00 +19°C° 0 mm 5 mps 726 mmHg 56%

    Day after tomorrow, 28 June, Friday

    Time Temperature Precipitation Wind Pressure Humidity
    00:00 +19°C° 0 mm 4 mps 726 mmHg 58%
    01:00 +18°C° 0 mm 4 mps 726 mmHg 60%
    02:00 +17°C° 0 mm 4 mps 726 mmHg 62%
    03:00 +17°C° 0 mm 3 mps 726 mmHg 65%
    04:00 +16°C° 0 mm 3 mps 726 mmHg 68%
    05:00 +17°C° 0 mm 4 mps 726 mmHg 67%
    06:00 +18°C° 0 mm 4 mps 726 mmHg 67%
    07:00 +19°C° 0 mm 5 mps 726 mmHg 67%
    08:00 +20°C° 0 mm 5 mps 727 mmHg 62%
    09:00 +21°C° 0 mm 5 mps 727 mmHg 58%
    10:00 +22°C° 0 mm 5 mps 727 mmHg 54%
    11:00 +23°C° 0 mm 5 mps 726 mmHg 51%
    12:00 +25°C° 0 mm 5 mps 726 mmHg 49%
    13:00 +25°C° 0 mm 5 mps 726 mmHg 47%
    14:00 +25°C° 0 mm 5 mps 726 mmHg 47%
    15:00 +25°C° 0 mm 5 mps 726 mmHg 48%
    16:00 +25°C° 0 mm 5 mps 726 mmHg 49%
    17:00 +23°C° 0 mm 5 mps 726 mmHg 55%
    18:00 +21°C° 0 mm 4 mps 726 mmHg 62%
    19:00 +20°C° 0 mm 3 mps 726 mmHg 69%
    20:00 +19°C° 0 mm 3 mps 726 mmHg 72%
    21:00 +17°C° 0 mm 2 mps 726 mmHg 74%
    22:00 +16°C° 0 mm 2 mps 726 mmHg 77%
    23:00 +16°C° 0 mm 2 mps 726 mmHg 77%

    29 June, Saturday

    Time Temperature Precipitation Wind Pressure Humidity
    00:00 +16°C° 0 mm 2 mps 726 mmHg 76%
    01:00 +15°C° 0 mm 2 mps 726 mmHg 76%
    02:00 +15°C° 0 mm 2 mps 726 mmHg 78%
    03:00 +15°C° 0 mm 2 mps 726 mmHg 80%
    04:00 +15°C° 0 mm 2 mps 726 mmHg 81%
    05:00 +16°C° 0 mm 1 mps 726 mmHg 76%
    06:00 +19°C° 0 mm 1 mps 726 mmHg 72%
    07:00 +21°C° 0 mm 1 mps 727 mmHg 67%
    08:00 +21°C° 0 mm 2 mps 727 mmHg 61%
    09:00 +23°C° 0 mm 2 mps 727 mmHg 56%
    10:00 +25°C° 0 mm 2 mps 727 mmHg 50%
    11:00 +25°C° 0 mm 2 mps 727 mmHg 48%
    12:00 +26°C° 0 mm 2 mps 726 mmHg 47%
    13:00 +26°C° 0 mm 2 mps 726 mmHg 45%
    14:00 +26°C° 0 mm 2 mps 726 mmHg 45%
    15:00 +26°C° 0 mm 2 mps 726 mmHg 45%
    16:00 +26°C° 0 mm 1 mps 726 mmHg 45%
    17:00 +25°C° 0 mm 1 mps 726 mmHg 52%
    18:00 +24°C° 0 mm 1 mps 725 mmHg 59%
    19:00 +22°C° 0 mm 1 mps 725 mmHg 66%
    20:00 +21°C° 0 mm 1 mps 725 mmHg 68%
    21:00 +19°C° 0 mm 1 mps 726 mmHg 70%
    22:00 +18°C° 0 mm 1 mps 726 mmHg 73%
    23:00 +18°C° 0 mm 1 mps 726 mmHg 74%

    30 June, Sunday

    Time Temperature Precipitation Wind Pressure Humidity
    00:00 +18°C° 0 mm 1 mps 726 mmHg 76%
    01:00 +16°C° 0 mm 1 mps 725 mmHg 78%
    02:00 +16°C° 0 mm 1 mps 725 mmHg 79%
    03:00 +16°C° 0 mm 1 mps 725 mmHg 81%
    04:00 +15°C° 0 mm 1 mps 725 mmHg 82%
    05:00 +18°C° 0 mm 1 mps 725 mmHg 78%
    06:00 +19°C° 0 mm 2 mps 726 mmHg 73%
    07:00 +21°C° 0 mm 2 mps 726 mmHg 69%
    08:00 +23°C° 0 mm 2 mps 726 mmHg 63%
    09:00 +25°C° 0 mm 3 mps 726 mmHg 58%
    10:00 +27°C° 0 mm 4 mps 726 mmHg 53%
    11:00 +28°C° 0 mm 4 mps 726 mmHg 51%
    12:00 +28°C° 0 mm 4 mps 726 mmHg 49%
    13:00 +29°C° 0 mm 4 mps 726 mmHg 47%
    14:00 +29°C° 0 mm 4 mps 726 mmHg 48%
    15:00 +29°C° 0 mm 4 mps 725 mmHg 50%
    16:00 +29°C° 0 mm 4 mps 725 mmHg 51%
    17:00 +28°C° 0 mm 4 mps 725 mmHg 58%
    18:00 +26°C° 0 mm 4 mps 725 mmHg 65%
    19:00 +25°C° 0 mm 3 mps 725 mmHg 72%
    20:00 +22°C° 0 mm 3 mps 725 mmHg 75%
    21:00 +21°C° 0 mm 3 mps 725 mmHg 79%
    22:00 +20°C° 0 mm 3 mps 725 mmHg 82%
    23:00 +20°C° 0 mm 3 mps 725 mmHg 81%

    1 July, Monday

    Time Temperature Precipitation Wind Pressure Humidity
    00:00 +20°C° 0 mm 2 mps 725 mmHg 81%
    01:00 +19°C° 0 mm 2 mps 725 mmHg 81%
    02:00 +19°C° 0 mm 2 mps 725 mmHg 80%
    03:00 +19°C° 0 mm 2 mps 725 mmHg 79%
    04:00 +20°C° 0 mm 1 mps 725 mmHg 77%
    05:00 +22°C° 0 mm 1 mps 725 mmHg 73%
    06:00 +24°C° 0 mm 1 mps 725 mmHg 69%
    07:00 +26°C° 0 mm 1 mps 725 mmHg 65%
    08:00 +28°C° 0 mm 1 mps 725 mmHg 60%
    09:00 +29°C° 0 mm 1 mps 725 mmHg 55%
    10:00 +31°C° 0 mm 2 mps 725 mmHg 49%
    11:00 +32°C° 0 mm 2 mps 725 mmHg 47%
    12:00 +34°C° 0 mm 3 mps 725 mmHg 45%
    13:00 +35°C° 0 mm 3 mps 725 mmHg 43%
    14:00 +34°C° 0 mm 3 mps 724 mmHg 44%
    15:00 +34°C° 0 mm 4 mps 724 mmHg 44%
    16:00 +34°C° 0 mm 4 mps 724 mmHg 45%
    17:00 +31°C° 0 mm 3 mps 723 mmHg 53%
    18:00 +29°C° 0 mm 3 mps 723 mmHg 61%
    19:00 +28°C° 0 mm 2 mps 723 mmHg 69%
    20:00 +26°C° 0.5 mm 2 mps 723 mmHg 73%
    21:00 +25°C° 0.5 mm 2 mps 723 mmHg 76%
    22:00 +24°C° 0.5 mm 2 mps 723 mmHg 80%
    23:00 +24°C° 0.1 mm 2 mps 723 mmHg 79%
    Show more